• în România
  • Lista ţărilor
  • Pe 7 zile
  • Temperatura apei
  • Hartă satelitară
  • Meteo pe hartă
  • Widget-uri
  • user-avatar
    Intrare

    Meteo pe oră la San Cristóbal

    Astăzi, 22 Septembrie, Sâmbătă

    Timp Temperatura Precipitaţii Vânt Presiune Umiditate
    00:00 +22°C° 0.6 mm 1 m/s 671 mmHg 77%
    01:00 +22°C° 0.6 mm 1 m/s 670 mmHg 78%
    02:00 +21°C° 1.1 mm 1 m/s 670 mmHg 79%
    03:00 +21°C° 1.1 mm 1 m/s 670 mmHg 79%
    04:00 +21°C° 1.1 mm 1 m/s 670 mmHg 80%
    05:00 +22°C° 1.6 mm 1 m/s 671 mmHg 78%
    06:00 +22°C° 1.6 mm 1 m/s 671 mmHg 76%
    07:00 +23°C° 1.6 mm 1 m/s 671 mmHg 75%
    08:00 +25°C° 0.9 mm 1 m/s 672 mmHg 69%
    09:00 +26°C° 0.9 mm 1 m/s 672 mmHg 64%
    10:00 +28°C° 0.9 mm 1 m/s 672 mmHg 59%
    11:00 +29°C° 0.3 mm 1 m/s 672 mmHg 56%
    12:00 +30°C° 0.3 mm 2 m/s 672 mmHg 54%
    13:00 +31°C° 0.3 mm 2 m/s 671 mmHg 51%
    14:00 +30°C° 0.6 mm 2 m/s 671 mmHg 55%
    15:00 +29°C° 0.6 mm 1 m/s 670 mmHg 59%
    16:00 +28°C° 0.6 mm 1 m/s 669 mmHg 62%
    17:00 +26°C° 0.8 mm 1 m/s 669 mmHg 68%
    18:00 +25°C° 0.8 mm 1 m/s 669 mmHg 74%
    19:00 +23°C° 0.8 mm 1 m/s 669 mmHg 80%
    20:00 +23°C° 0.8 mm 1 m/s 670 mmHg 81%
    21:00 +23°C° 0.8 mm 1 m/s 670 mmHg 82%
    22:00 +22°C° 0.8 mm 1 m/s 671 mmHg 83%
    23:00 +22°C° 0.8 mm 1 m/s 670 mmHg 83%

    Mâine, 23 Septembrie, Duminică

    Timp Temperatura Precipitaţii Vânt Presiune Umiditate
    00:00 +22°C° 0.8 mm 1 m/s 670 mmHg 83%
    01:00 +22°C° 0.8 mm 1 m/s 670 mmHg 83%
    02:00 +22°C° 1.2 mm 1 m/s 670 mmHg 83%
    03:00 +21°C° 1.2 mm 1 m/s 669 mmHg 83%
    04:00 +21°C° 1.2 mm 1 m/s 669 mmHg 82%
    05:00 +22°C° 1.6 mm 1 m/s 670 mmHg 80%
    06:00 +22°C° 1.6 mm 1 m/s 670 mmHg 79%
    07:00 +23°C° 1.6 mm 1 m/s 671 mmHg 77%
    08:00 +25°C° 0.7 mm 1 m/s 671 mmHg 70%
    09:00 +26°C° 0.7 mm 1 m/s 672 mmHg 63%
    10:00 +28°C° 0.7 mm 1 m/s 673 mmHg 56%
    11:00 +29°C° 0.2 mm 2 m/s 672 mmHg 54%
    12:00 +30°C° 0.2 mm 2 m/s 671 mmHg 51%
    13:00 +31°C° 0.2 mm 2 m/s 671 mmHg 49%
    14:00 +30°C° 0.5 mm 2 m/s 670 mmHg 53%
    15:00 +29°C° 0.5 mm 1 m/s 670 mmHg 57%
    16:00 +28°C° 0.5 mm 1 m/s 669 mmHg 61%
    17:00 +26°C° 1 mm 1 m/s 669 mmHg 67%
    18:00 +25°C° 1 mm 1 m/s 669 mmHg 74%
    19:00 +23°C° 1 mm 1 m/s 670 mmHg 81%
    20:00 +23°C° 1.4 mm 1 m/s 670 mmHg 82%
    21:00 +22°C° 1.4 mm 1 m/s 671 mmHg 83%
    22:00 +22°C° 1.4 mm 1 m/s 671 mmHg 85%
    23:00 +22°C° 2 mm 1 m/s 671 mmHg 85%

    Poimâine, 24 Septembrie, Luni

    Timp Temperatura Precipitaţii Vânt Presiune Umiditate
    00:00 +22°C° 2 mm 1 m/s 671 mmHg 86%
    01:00 +21°C° 2 mm 1 m/s 670 mmHg 86%
    02:00 +21°C° 2.1 mm 1 m/s 670 mmHg 86%
    03:00 +21°C° 2.1 mm 1 m/s 670 mmHg 86%
    04:00 +21°C° 2.1 mm 1 m/s 670 mmHg 87%
    05:00 +21°C° 2.3 mm 1 m/s 670 mmHg 85%
    06:00 +22°C° 2.3 mm 1 m/s 671 mmHg 83%
    07:00 +22°C° 2.3 mm 1 m/s 671 mmHg 82%
    08:00 +23°C° 1.6 mm 1 m/s 672 mmHg 78%
    09:00 +24°C° 1.6 mm 1 m/s 673 mmHg 74%
    10:00 +25°C° 1.6 mm 1 m/s 673 mmHg 70%
    11:00 +26°C° 0.8 mm 2 m/s 673 mmHg 67%
    12:00 +27°C° 0.8 mm 2 m/s 672 mmHg 64%
    13:00 +28°C° 0.8 mm 2 m/s 672 mmHg 61%
    14:00 +27°C° 0.8 mm 2 m/s 671 mmHg 62%
    15:00 +27°C° 0.8 mm 1 m/s 671 mmHg 63%
    16:00 +26°C° 0.8 mm 1 m/s 670 mmHg 64%
    17:00 +25°C° 0.6 mm 1 m/s 670 mmHg 67%
    18:00 +23°C° 0.6 mm 1 m/s 670 mmHg 70%
    19:00 +22°C° 0.6 mm 1 m/s 670 mmHg 73%
    20:00 +22°C° 0.4 mm 1 m/s 671 mmHg 73%
    21:00 +22°C° 0.4 mm 1 m/s 671 mmHg 73%
    22:00 +21°C° 0.4 mm 1 m/s 672 mmHg 72%
    23:00 +21°C° 0.1 mm 1 m/s 671 mmHg 72%

    25 Septembrie, Marţi

    Timp Temperatura Precipitaţii Vânt Presiune Umiditate
    00:00 +21°C° 0.1 mm 1 m/s 671 mmHg 72%
    01:00 +21°C° 0.1 mm 1 m/s 671 mmHg 72%
    02:00 +20°C° 0 mm 1 m/s 671 mmHg 72%
    03:00 +20°C° 0 mm 1 m/s 671 mmHg 73%
    04:00 +20°C° 0 mm 1 m/s 670 mmHg 73%
    05:00 +21°C° 0 mm 1 m/s 671 mmHg 71%
    06:00 +22°C° 0 mm 1 m/s 672 mmHg 68%
    07:00 +23°C° 0 mm 1 m/s 672 mmHg 66%
    08:00 +25°C° 0 mm 1 m/s 673 mmHg 59%
    09:00 +28°C° 0 mm 1 m/s 674 mmHg 52%
    10:00 +30°C° 0 mm 2 m/s 674 mmHg 46%
    11:00 +30°C° 0.2 mm 2 m/s 674 mmHg 46%
    12:00 +31°C° 0.2 mm 2 m/s 673 mmHg 47%
    13:00 +31°C° 0.2 mm 2 m/s 672 mmHg 48%
    14:00 +30°C° 0.4 mm 2 m/s 671 mmHg 51%
    15:00 +29°C° 0.4 mm 2 m/s 671 mmHg 55%
    16:00 +28°C° 0.4 mm 1 m/s 670 mmHg 59%
    17:00 +26°C° 0.6 mm 1 m/s 670 mmHg 65%
    18:00 +25°C° 0.6 mm 1 m/s 670 mmHg 72%
    19:00 +23°C° 0.6 mm 1 m/s 671 mmHg 79%
    20:00 +22°C° 0.4 mm 1 m/s 671 mmHg 80%
    21:00 +22°C° 0.4 mm 1 m/s 671 mmHg 81%
    22:00 +22°C° 0.4 mm 1 m/s 671 mmHg 82%
    23:00 +21°C° 0.4 mm 1 m/s 671 mmHg 82%

    26 Septembrie, Miercuri

    Timp Temperatura Precipitaţii Vânt Presiune Umiditate
    00:00 +21°C° 0.4 mm 1 m/s 671 mmHg 82%
    01:00 +21°C° 0.4 mm 1 m/s 670 mmHg 81%
    02:00 +21°C° 0.6 mm 1 m/s 670 mmHg 81%
    03:00 +21°C° 0.6 mm 1 m/s 670 mmHg 80%
    04:00 +21°C° 0.6 mm 1 m/s 670 mmHg 79%
    05:00 +21°C° 0.6 mm 1 m/s 670 mmHg 77%
    06:00 +22°C° 0.6 mm 1 m/s 671 mmHg 75%
    07:00 +22°C° 0.6 mm 1 m/s 672 mmHg 73%
    08:00 +24°C° 0.3 mm 1 m/s 672 mmHg 67%
    09:00 +26°C° 0.3 mm 1 m/s 673 mmHg 61%
    10:00 +28°C° 0.3 mm 1 m/s 673 mmHg 56%
    11:00 +30°C° 0.2 mm 1 m/s 673 mmHg 52%
    12:00 +31°C° 0.1 mm 1 m/s 672 mmHg 49%
    13:00 +32°C° 0.1 mm 1 m/s 671 mmHg 46%
    14:00 +31°C° 0.2 mm 1 m/s 671 mmHg 48%
    15:00 +30°C° 0.2 mm 1 m/s 670 mmHg 51%
    16:00 +29°C° 0.2 mm 1 m/s 669 mmHg 54%
    17:00 +27°C° 0.2 mm 1 m/s 670 mmHg 60%
    18:00 +25°C° 0.2 mm 1 m/s 670 mmHg 66%
    19:00 +23°C° 0.2 mm 1 m/s 670 mmHg 73%
    20:00 +23°C° 0.1 mm 1 m/s 670 mmHg 72%
    21:00 +22°C° 0.1 mm 1 m/s 670 mmHg 72%
    22:00 +22°C° 0.1 mm 1 m/s 671 mmHg 72%
    23:00 +21°C° 0.1 mm 1 m/s 670 mmHg 71%

    27 Septembrie, Joi

    Timp Temperatura Precipitaţii Vânt Presiune Umiditate
    00:00 +21°C° 0.1 mm 1 m/s 670 mmHg 71%
    01:00 +21°C° 0.1 mm 1 m/s 670 mmHg 70%
    02:00 +21°C° 0.1 mm 1 m/s 669 mmHg 70%
    03:00 +20°C° 0.1 mm 1 m/s 669 mmHg 69%
    04:00 +20°C° 0.1 mm 1 m/s 669 mmHg 69%
    05:00 +21°C° 0.1 mm 1 m/s 670 mmHg 66%
    06:00 +22°C° 0.1 mm 1 m/s 671 mmHg 62%
    07:00 +23°C° 0.1 mm 1 m/s 672 mmHg 59%
    08:00 +26°C° 0.1 mm 1 m/s 672 mmHg 55%
    09:00 +28°C° 0.1 mm 1 m/s 673 mmHg 50%
    10:00 +30°C° 0.1 mm 1 m/s 673 mmHg 46%
    11:00 +31°C° 0.1 mm 1 m/s 673 mmHg 46%
    12:00 +31°C° 0.1 mm 2 m/s 672 mmHg 47%
    13:00 +31°C° 0.1 mm 2 m/s 671 mmHg 47%
    14:00 +30°C° 0.3 mm 2 m/s 670 mmHg 51%
    15:00 +30°C° 0.3 mm 2 m/s 670 mmHg 55%
    16:00 +29°C° 0.3 mm 2 m/s 669 mmHg 58%
    17:00 +27°C° 0.7 mm 1 m/s 670 mmHg 66%
    18:00 +25°C° 0.7 mm 1 m/s 670 mmHg 74%
    19:00 +21°C° 0.7 mm 0 m/s 670 mmHg 82%
    20:00 +23°C° 0.9 mm 1 m/s 671 mmHg 83%
    21:00 +22°C° 0.9 mm 1 m/s 671 mmHg 83%
    22:00 +22°C° 0.9 mm 1 m/s 671 mmHg 84%
    23:00 +22°C° 0.6 mm 1 m/s 671 mmHg 83%
    Arată mai mult